Regional Weather Roundup
Issued by NWS

Home | Current Version | Previous Version | Text Only | Print | Product List | Glossary On
Versions: 1 2 3 4 5 6 7 8 9 10 11 12 13 14 15 16 17 18 19 20 21 22 23 24 25 26 27 28 29 30 31 32 33 34 35 36 37 38 39 40 41 42 43 44 45 46 47 48 49 50
431
ASUS43 KDTX 201810
RWRMI
MICHIGAN HOURLY REGIONAL WEATHER ROUNDUP
NATIONAL WEATHER SERVICE DETROIT/PONTIAC MI
100 PM EST MON NOV 20 2017

NOTE: "FAIR" INDICATES FEW OR NO CLOUDS BELOW 12,000 FEET WITH NO
SIGNIFICANT WEATHER AND/OR OBSTRUCTION TO VISIBILITY.

MIZ047>049-052>055-059>063-066>070-074>076-081>083-201900-
SOUTHEAST LOWER MICHIGAN

CITY           SKY/WX    TMP DP  RH WIND       PRES   REMARKS
ADRIAN         SUNNY     43  27  53 SW18G26   29.96F
6HR MIN TEMP:  25; 6HR MAX TEMP:  43;

ALMA           CLOUDY    42  31  62 S13       29.86F
ANN ARBOR      SUNNY     44  27  51 S20G26    29.93F
BAD AXE        SUNNY     43  30  60 SW10G20   29.86F
6HR MIN TEMP:  31; 6HR MAX TEMP:  43;

CARO           CLOUDY    44  29  56 SW16      29.86F
DETROIT CITY   SUNNY    N/A N/A N/A SW18G25   29.93F
DETROIT        PTSUNNY   46  28  49 SW21G28   29.95F
6HR MIN TEMP:  29; 6HR MAX TEMP:  46;

FLINT          SUNNY     45  27  49 SW15      29.88F
6HR MIN TEMP:  30; 6HR MAX TEMP:  45;

GROSSE ILE     SUNNY     44  31  59 SW14      29.96F
6HR MIN TEMP:  30; 6HR MAX TEMP:  44;

HILLSDALE      SUNNY     46  27  46 SW16G22   29.92F
HOWELL         SUNNY     46  29  51 S13G24    29.88F
6HR MIN TEMP:  29; 6HR MAX TEMP:  46;


CITY           SKY/WX    TMP DP  RH WIND       PRES   REMARKS
JACKSON        SUNNY     47  27  45 S13       29.91F
6HR MIN TEMP:  29; 6HR MAX TEMP:  47;

LAMBERTVILLE   SUNNY     47  26  43 SW15G25   29.97F
6HR MIN TEMP:  30; 6HR MAX TEMP:  47;

LANSING        SUNNY     46  28  49 S17G25    29.88F
6HR MIN TEMP:  29; 6HR MAX TEMP:  46;

LAPEER         FAIR      46  27  48 SW18G25   29.88F
6HR MIN TEMP:  30; 6HR MAX TEMP:  46;

MASON          SUNNY     47  29  48 SW12G20   29.89F
MONROE         SUNNY     46  27  47 SW10      29.96F
6HR MIN TEMP:  30; 6HR MAX TEMP:  46;

MT. CLEMENS    PTSUNNY   46  28  50 SW20G28   29.90F
6HR MIN TEMP:  30; 6HR MAX TEMP:  46;

PONTIAC        PTSUNNY   44  27  51 SW16G26   29.89F
6HR MIN TEMP:  29; 6HR MAX TEMP:  44;

PORT HOPE        N/A     41  30  65 SW9       29.84F
6HR MIN TEMP:  30; 6HR MAX TEMP:  42;

PORT HURON     CLOUDY    45  27  49 S15       29.91F
TRI CITIES     CLOUDY    42  30  62 SW16      29.86F
6HR MIN TEMP:  31; 6HR MAX TEMP:  43;

MIDLAND        FAIR      42  30  62 SW13      29.85F
6HR MIN TEMP:  31; 6HR MAX TEMP:  42;

TROY           SUNNY     46  26  45 SW13G29   29.93F
SAGINAW HB     CLOUDY    43  30  61 SW17G23   29.85F
$$
MIZ043>046-050>051-056>058-064>065-071>073-077>080-201900-
SOUTHWEST LOWER MICHIGAN

CITY           SKY/WX    TMP DP  RH WIND       PRES   REMARKS
BATTLE CREEK   SUNNY     45  28  51 SW21      29.90F
6HR MIN TEMP:  28; 6HR MAX TEMP:  45;

BENTON HARBOR  SUNNY     49  28  44 S12G21    29.87F
6HR MIN TEMP:  30; 6HR MAX TEMP:  49;

BIG RAPIDS     CLOUDY    42  33  69 SW14      29.79F
6HR MIN TEMP:  26; 6HR MAX TEMP:  42;

COLDWATER      SUNNY     47  25  42 SW17G25   29.92F
6HR MIN TEMP:  28; 6HR MAX TEMP:  47;

FREMONT        PTSUNNY   47  36  65 S20G28    29.80F
HOLLAND        SUNNY     46  32  58 S21G29    29.86F
6HR MIN TEMP:  32; 6HR MAX TEMP:  46;

GRAND RAPIDS   PTSUNNY   45  30  55 SW15G25   29.85F
6HR MIN TEMP:  30; 6HR MAX TEMP:  45;

IONIA          FAIR      45  28  51 S18       29.85F
6HR MIN TEMP:  30; 6HR MAX TEMP:  45;

KALAMAZOO      SUNNY     47  26  44 SW18G25   29.90F
6HR MIN TEMP:  28; 6HR MAX TEMP:  47;

LUDINGTON      PTSUNNY   44  35  69 S17G24    29.77F
6HR MIN TEMP:  37; 6HR MAX TEMP:  44;

MARSHALL       SUNNY     46  27  49 SW16G22   29.90F
6HR MIN TEMP:  27; 6HR MAX TEMP:  46;

MOUNT PLEASANT CLOUDY    43  31  61 SW9G17    29.83F
6HR MIN TEMP:  32; 6HR MAX TEMP:  43;

MUSKEGON       CLOUDY    48  34  58 SW23G31   29.83F
6HR MIN TEMP:  41; 6HR MAX TEMP:  49;

SOUTH HAVEN    SUNNY     50  27  40 W16G25    29.87F
$$
MIZ016>042-201900-
NORTHERN LOWER MICHIGAN

CITY           SKY/WX    TMP DP  RH WIND       PRES   REMARKS
ALPENA         CLOUDY    39  31  72 S6        29.79F WCI  35
6HR MIN TEMP:  28; 6HR MAX TEMP:  40;

BEAVER ISLAND  CLOUDY    42  33  68 SW9       29.72F
6HR MIN TEMP:  22; 6HR MAX TEMP:  42;

BELLAIRE       MOSUNNY   42  35  76 S10G16    29.75F
6HR MIN TEMP:  32; 6HR MAX TEMP:  42;

CADILLAC       CLOUDY    38  34  85 S12G17    29.76F WCI  30
CHARLEVOIX     MOSUNNY   42  33  71 S10       29.76F
6HR MIN TEMP:  32; 6HR MAX TEMP:  42;

FRANKFORT      SUNNY     44  35  71 SW12G18   29.74F
GAYLORD        CLOUDY    37  30  75 S17       29.74F WCI  27
6HR MIN TEMP:  27; 6HR MAX TEMP:  37;

GRAYLING       CLOUDY    37  31  78 SW7       29.77F WCI  32
6HR MIN TEMP:  25; 6HR MAX TEMP:  37;

HARBOR SPRINGS MOSUNNY   41  32  69 SW10      29.74F
MANISTEE       SUNNY     46  35  65 S8G16     29.75F
OSCODA         CLOUDY    42  31  66 SW13      29.81F
6HR MIN TEMP:  22; 6HR MAX TEMP:  42;

PELLSTON       CLOUDY    38  30  73 VRB5      29.74F WCI  34
6HR MIN TEMP:  17; 6HR MAX TEMP:  38;

ROGERS CITY    CLOUDY    37  29  73 SE7       29.79F WCI  31
TRAVERSE CITY  PTSUNNY   44  33  65 VRB7      29.74F
6HR MIN TEMP:  31; 6HR MAX TEMP:  44;

$$
MIZ007>008-015-201900-
EASTERN UPPER MICHIGAN

CITY           SKY/WX    TMP DP  RH WIND       PRES   REMARKS
KINROSS        CLOUDY    35  28  75 SE12      29.75F WCI  27
6HR MIN TEMP:  25; 6HR MAX TEMP:  35;

MACKINAC ISLAN CLOUDY    37  28  68 SE7       29.74F WCI  32
6HR MIN TEMP:  28; 6HR MAX TEMP:  37;

NEWBERRY       CLOUDY    34  30  84 S14       29.69F WCI  25
6HR MIN TEMP:  15; 6HR MAX TEMP:  34;

S. S. MARIE    CLOUDY    34  24  67 SE10      29.75F WCI  26
6HR MIN TEMP:  27; 6HR MAX TEMP:  34;

MUNISING         N/A     35  27  72 S10       29.65F WCI  27
6HR MIN TEMP:  20; 6HR MAX TEMP:  35;

$$
MIZ004>006-011>014-085-201900-
CENTRAL UPPER MICHIGAN

CITY           SKY/WX    TMP DP  RH WIND       PRES   REMARKS
MANISTIQUE     CLOUDY    39  31  71 S9        29.69F WCI  33
6HR MIN TEMP:  16; 6HR MAX TEMP:  39;

ESCANABA       PTSUNNY   39  31  72 S9        29.68F WCI  33
6HR MIN TEMP:  20; 6HR MAX TEMP:  39;

MENOMINEE      SUNNY     40  28  62 S9        29.68F WCI  34
6HR MIN TEMP:  26; 6HR MAX TEMP:  40;

SAWYER-GWINN   CLOUDY    30  25  80 S13       29.63F WCI  20
$$
MIZ001>003-009>011-084-201900-
WESTERN UPPER MICHIGAN

CITY           SKY/WX    TMP DP  RH WIND       PRES   REMARKS
IRON MOUNTAIN  MOSUNNY   35  23  61 S6        29.61F WCI  30
6HR MIN TEMP:  19; 6HR MAX TEMP:  36;

HOUGHTON       CLOUDY    29  23  78 SE7       29.56F WCI  22
6HR MIN TEMP:  18; 6HR MAX TEMP:  29;

COPPER HARBOR    N/A     36  26  67 SW14G24   29.57F WCI  27
6HR MIN TEMP:  20; 6HR MAX TEMP:  36;

IRONWOOD       CLOUDY    36  28  73 S10G17    29.51F WCI  28
                                      6HR PCP: TRACE;

$$

ABBREVIATIONS USED IN REMARKS
   TC - TEMPERATURE IN CELSIUS
  WCI - WIND CHILL INDEX
   HX - HEAT INDEX
  VSB - VISIBILITY





USA.gov is the U.S. government's official web portal to all federal, state and local government web resources and services.